NOAA 17 DEB, 48167

Orbit data source: Space-Track

NOAA 17 DEB, 48167 is space debris in SSO originally from a launch on Mon, 24 Jun 2002 UTC launched from the Air Force Western Test Range (AFWTR). Debris objects in space refer to the collection of defunct objects orbiting the Earth. Examples of debris include non-operational satellites, rocket bodies, and fragments generated from explosions, collisions, or faulty payload assembly.

Loading next visibility...
Identifier
48167, 2002-032H
Orbit
SSO
Country
Flag of USUS
Related business
Manufacturer
Unknown
Mission
Spacecraft
Bus & Motor
Unknown
Mass
Unknown
Launch date (UTC)
2002-06-24 (24 years ago)
Launch vehicle
Unknown
Launch site
Air Force Western Test Range (AFWTR)
Object type
Payload
Rocket body
Debris
Shape & HBR
Unknown shape, 0.1 m
Radar Cross Section
Medium (>0.1 m² and <1 m²)

Expand to show TLE details & history
Last TLE update: 2 days ago

TLE from 2 days ago
0 NOAA 17 DEB
1 48167U 02032H   26171.27057529  .00010612  00000-0  17602-2 0  9995
2 48167  98.7234 179.8056 0025329  83.9556 276.4534 14.70193345277042
Epoch: 2026-06-20T06:29Z
TLE epoch observation values (Epoch: 2026-06-20T06:29:37.705Z)
Latitude
0.00007°
Longitude
173.91088°
Altitude
661.474 km
Speed
7.528 km/s
True Right ascension
11h 59m 13s
True Declination
0° 00' 00"
Sunlit
Object was in daylight at epoch
Visualization orbit readout
Latitude
Unknown
Longitude
Unknown
Altitude
Unknown
Speed
Unknown
Apparent Right ascension
Unknown
Apparent Declination
Unknown
Sunlit
N/A
Visualization observer readout
Local Sidereal Time
23:19:40
Azimuth
Unknown
Elevation
Unknown
Doppler factor
Unknown
Orbital elements
Apogee altitude
675.364 km
Perigee altitude
639.723 km
Semi-major axis
7,035.68 km
Eccentricity
0.00253
Inclination
98.7234°
RAAN
179.8056°
Arg. of periapsis
83.9556°
True anomaly
276.16489°
Mean anomaly
276.4534°
Eccentric anomaly
276.30915°
Mean motion
3.67777 °/min
Orbital period
97.89 mins
BSTAR
0.0017602
Loading maneuver chart data...
Computing Atmospheric mass density...

Documentation

Showing up to 5 results
|